Find Starlink 31341

NORAD ID: 59155 Int'l Des: 2024-044 Owner: SPXS Country: US Constellation: starlink operational
LEOCIRCULAR

現在のビュー

3D地球を読み込み中...

About Starlink 31341

Starlink 31341 (NORAD 59155) is a starlink constellation satellite (v2 mini) launched Mar 4, 2024 by SPXS of US. It operates in LEO, CIRCULAR orbit with a mass of 730.00 kg.

Starlink 31341について

説明を読み込み中...

次回通過

Passes for default location (London). Set your location on the main map for personalized predictions.

高度履歴

Loading altitude history...

軌道要素

1 59155U 24044D 26167.56137675 .00001966 00000-0 80954-4 0 9993
2 59155 43.0004 272.3627 0002713 268.6064 91.4476 15.27584942128641
Epoch: Jun 16, 2026 • Age: 40 hours

現在のステータス

高度 484.8 km
速度 7.62 km/s
衛星直下点 -11.88°S, 105.94°E
打ち上げ日 Mar 4, 2024
運用期間 2.2 years
タイプ internet

技術仕様

分類 Payload
質量 730.00 kg
乾燥質量 700.00 kg
総質量 730.00 kg
長さ 0.30 m
直径 4.10 m
スパン 29.00 m
形状 Box + pan
製造者 SPXS
バスタイプ Starlink V2M
フェーズステータス In Orbit
所有者/国 SPXS/US

Most Searched